Fort Indiantown Gap, PA

6:37 AM EST on December 08, 2019 (GMT -0500)
Muir Army Air Field

Weather History for KMUI - November, 2019

Change the Weather History Date:

Tuesday, November 12, 2019

  Actual Average Record
Temperature  
Mean Temperature 37 °F -  
Max Temperature 50 °F 50 °F 64 °F (2012)
Min Temperature 24 °F 34 °F 21 °F (2017)
Degree Days  
Heating Degree Days 28    
Moisture  
Dew Point 26 °F    
Average Humidity 67    
Maximum Humidity 93    
Minimum Humidity 32    
Precipitation  
Precipitation 0.19 in - - ()
Sea Level Pressure  
Sea Level Pressure 29.94 in    
Wind  
Wind Speed 6 mph ()    
Max Wind Speed 18 mph    
Max Gust Speed 31 mph    
Visibility 9.9 miles    
Events Rain , Snow    
Averages and records for this station are not official NWS values.
T = Trace of Precipitation, MM = Missing Value Source: Averaged Metar Reports

Daily Weather History Graph

Daily Weather History Graph

Search for Another Location

Airport or City:

Astronomy

Nov. 12, 2019 Rise Set
Actual Time 6:48 AM EST 4:51 PM EST
Civil Twilight 6:19 AM EST 5:20 PM EST
Nautical Twilight 5:46 AM EST 5:53 PM EST
Astronomical Twilight 5:14 AM EST 6:25 PM EST
Moon 5:17 PM EST (11/12) 6:37 AM EST (11/12)
Length of Visible Light 11h 01m
Length of Day
10h 03m
Full, 100% of the Moon is Illuminated
Nov 12
Full
Nov 19
Last Quarter
Nov 26
New
Dec 4
First Quarter
Dec 12
Full

Hourly Weather History & Observations

Time (EST) Temp. Windchill Dew Point Humidity Pressure Visibility Wind Dir Wind Speed Gust Speed Precip Events Conditions
12:53 AM 48.2 °F - 42.8 °F 82% 29.74 in 10.0 mi Calm Calm - N/A Rain Light Rain
12:56 AM 48.2 °F - 42.1 °F 79% 29.74 in 10.0 mi Calm Calm - 0.00 in Rain Light Rain
1:35 AM 46.4 °F - 44.6 °F 93% 29.70 in 10.0 mi Calm Calm - N/A   Overcast
1:37 AM 46.4 °F 45.2 °F 42.8 °F 87% 29.71 in 10.0 mi NW 3.5 mph - N/A   Light Drizzle
1:46 AM 48.2 °F - 42.8 °F 82% 29.74 in 10.0 mi South 5.8 mph - N/A   Overcast
1:55 AM 48.2 °F - 44.6 °F 87% 29.75 in 10.0 mi South 4.6 mph - N/A Rain Light Rain
1:56 AM 48.2 °F - 44.2 °F 86% 29.75 in 10.0 mi South 4.6 mph - 0.00 in Rain Light Rain
2:56 AM 48.4 °F - 46.4 °F 93% 29.73 in 10.0 mi Calm Calm - 0.03 in Rain Light Rain
3:56 AM 50.0 °F - 46.2 °F 87% 29.74 in 10.0 mi West 8.1 mph - 0.04 in Rain Rain
4:52 AM 50.0 °F - 46.4 °F 87% 29.75 in 10.0 mi West 6.9 mph - N/A Rain Rain
4:56 AM 49.3 °F - 45.5 °F 87% 29.75 in 10.0 mi West 8.1 mph - 0.06 in Rain Rain
5:26 AM 48.2 °F - 42.8 °F 82% 29.78 in 10.0 mi NNW 17.3 mph 27.6 mph N/A Rain Rain
5:50 AM 42.8 °F 35.4 °F 37.4 °F 81% 29.81 in 10.0 mi NW 15.0 mph 26.5 mph N/A Rain Light Rain
5:56 AM 40.8 °F 32.6 °F 35.8 °F 82% 29.82 in 10.0 mi NW 16.1 mph 31.1 mph 0.05 in Rain Rain
6:56 AM 35.8 °F 25.7 °F 29.7 °F 78% 29.86 in 10.0 mi NNW 17.3 mph 27.6 mph 0.01 in Rain Light Rain
7:06 AM 35.6 °F 25.9 °F 28.4 °F 75% 29.88 in 10.0 mi NNW 16.1 mph 27.6 mph N/A   Overcast
7:19 AM 35.6 °F 25.2 °F 26.6 °F 70% 29.90 in 10.0 mi NNW 18.4 mph 26.5 mph N/A Rain Light Rain
7:33 AM 33.8 °F 24.8 °F 26.6 °F 75% 29.91 in 10.0 mi NNW 12.7 mph 25.3 mph N/A   Overcast
7:56 AM 33.6 °F 25.6 °F 25.2 °F 71% 29.94 in 10.0 mi NNW 10.4 mph 23.0 mph 0.00 in   Overcast
8:26 AM 33.8 °F 26.4 °F 24.8 °F 70% 29.95 in 10.0 mi NNW 9.2 mph 21.9 mph N/A   Overcast
8:56 AM 33.8 °F 25.8 °F 23.7 °F 67% 29.97 in 10.0 mi NW 10.4 mph 21.9 mph N/A   Overcast
9:34 AM 33.8 °F 27.7 °F 23.0 °F 65% 29.99 in 10.0 mi Variable 6.9 mph - N/A   Mostly Cloudy
9:46 AM 33.8 °F 27.7 °F 23.0 °F 65% 30.00 in 10.0 mi NW 6.9 mph 17.3 mph N/A   Overcast
9:56 AM 33.1 °F 24.4 °F 21.9 °F 64% 30.00 in 10.0 mi WNW 11.5 mph 27.6 mph N/A   Overcast
10:56 AM 32.9 °F 26.7 °F 21.7 °F 64% 30.03 in 10.0 mi Variable 6.9 mph - N/A   Overcast
11:56 AM 32.9 °F 26.7 °F 21.4 °F 63% 30.04 in 10.0 mi WNW 6.9 mph - N/A   Overcast
12:56 PM 32.9 °F 28.5 °F 20.1 °F 59% 30.02 in 10.0 mi North 4.6 mph - N/A   Overcast
1:56 PM 33.8 °F - 20.1 °F 57% 30.02 in 10.0 mi Calm Calm - N/A   Overcast
2:19 PM 33.8 °F 25.3 °F 19.4 °F 56% 30.03 in 7.0 mi North 11.5 mph 17.3 mph N/A Snow Light Snow
2:56 PM 32.4 °F - 21.6 °F 64% 30.03 in 10.0 mi Calm Calm - 0.00 in   Mostly Cloudy
3:56 PM 32.9 °F 26.7 °F 16.7 °F 51% 30.05 in 10.0 mi NNW 6.9 mph 19.6 mph N/A   Mostly Cloudy
4:09 PM 32.0 °F 24.2 °F 15.8 °F 51% 30.06 in 10.0 mi NNW 9.2 mph - N/A Snow Light Snow
4:22 PM 32.0 °F 24.2 °F 17.6 °F 55% 30.06 in 10.0 mi North 9.2 mph 21.9 mph N/A   Mostly Cloudy
4:56 PM 31.8 °F 22.8 °F 15.3 °F 50% 30.08 in 10.0 mi NNW 11.5 mph - 0.00 in   Mostly Cloudy
5:56 PM 31.3 °F 26.6 °F 11.3 °F 44% 30.12 in 10.0 mi WNW 4.6 mph - N/A   Mostly Cloudy
6:56 PM 29.8 °F 20.9 °F 11.1 °F 46% 30.17 in 10.0 mi North 10.4 mph 16.1 mph N/A   Partly Cloudy
7:56 PM 27.9 °F 22.6 °F 6.6 °F 41% 30.20 in 10.0 mi NNW 4.6 mph - N/A   Partly Cloudy
8:56 PM 26.6 °F - -0.0 °F 32% 30.23 in 10.0 mi Calm Calm - N/A   Clear
9:56 PM 25.3 °F 17.6 °F 1.4 °F 36% 30.23 in 10.0 mi NNW 6.9 mph - N/A   Clear
10:56 PM 24.6 °F 13.8 °F 1.9 °F 38% 30.23 in 10.0 mi North 11.5 mph - N/A   Clear
11:56 PM 24.1 °F 15.2 °F 1.6 °F 38% 30.23 in 10.0 mi West 8.1 mph - N/A   Clear